Regional Weather Roundup
Issued by NWS Charleston, SC

Current Version | Previous Version | Graphics & Text | Print | Product List | Glossary On
Versions: 1 2 3 4 5 6 7 8 9 10 11 12 13 14 15 16 17 18 19 20 21 22 23 24 25 26 27 28 29 30 31 32 33 34 35 36 37 38 39 40 41 42 43 44 45 46 47 48 49 50
000
ASUS42 KCHS 212312
RWRCHS

REGIONAL WEATHER ROUNDUP
NATIONAL WEATHER SERVICE CHARLESTON SC
700 PM EDT SAT OCT 21 2017

NOTE: "FAIR" INDICATES FEW OR NO CLOUDS BELOW 12,000 FEET WITH NO
SIGNIFICANT WEATHER AND/OR OBSTRUCTIONS TO VISIBILITY.

NOT ALL STATIONS ARE QUALITY CONTROLLED. USE DATA WITH CAUTION...
ESPECIALLY DEWPOINT OBSERVATIONS.

SCZ027-030-031-034>040-042>050-220000-
...SOUTHEAST SOUTH CAROLINA...

CITY           SKY/WX    TMP DP  RH WIND       PRES   REMARKS
N CHARLESTON   CLOUDY    72  64  76 E8        30.28R
WATERFRONT PRK NOT AVBL
JOHNS ISLAND   FAIR      72  66  83 NE8       30.28R
PINOPOLIS        N/A     73  66  78 CALM      30.20S
MONCKS CORNER  FAIR      70  64  83 SE3       30.28S
SUMMERVILLE    FAIR      72  63  73 CALM      30.28S
BEAUFORT MCAS  PTCLDY    74  67  78 MISG      30.26R
BEAUFORT ARPT  FAIR      72  64  78 E8        30.26S
HILTON HEAD IS CLEAR     73  68  83 NE10      30.26S
WALTERBORO     PTCLDY    70  63  78 E3        30.27S
ALLENDALE        N/A     72  61  68 CALM        N/A

...SOUTHERN MIDLANDS AND PEE DEE...

CITY           SKY/WX    TMP DP  RH WIND       PRES   REMARKS
GEORGETOWN     FAIR      68  66  94 E5        30.30S
KINGSTREE      FAIR      64  63  94 CALM      30.29R
ORANGEBURG     PTCLDY    71  52  50 NE3       30.28R
BARNWELL         N/A     72  57  60 CALM      30.27R
AIKEN          FAIR      68  46  45 E3        30.31R
MANNING        FAIR      68  61  77 MISG      30.28S
COLUMBIA       MOCLDY    73  56  54 E3        30.28R
SUMTER         CLOUDY    69  53  58 NE5       30.27R
FLORENCE       PTCLDY    71  56  58 CALM      30.30R
MYRTLE BEACH   PTCLDY    72  63  73 E5        30.31R
N MYRTLE BEACH CLOUDY    72  63  73 E6        30.30R

$$

GAZ063-065-086>088-099>101-113>116-118-119-134>141-150-220000-
...SOUTHEAST GEORGIA...

CITY           SKY/WX    TMP DP  RH WIND       PRES   REMARKS
SAVANNAH ARPT  PTCLDY    74  64  71 E5        30.25S
HUNTER AAF     CLOUDY    73  66  77 E7        30.22S
FORT STEWART   CLOUDY    73  63  72 E7        30.22S
STATESBORO     PTCLDY    74  58  58 CALM      30.25S
SYLVANIA       CLOUDY    73  64  73 SE3       30.26S
CLAXTON        FAIR      74  66  76 E3        30.24S

...CSRA...CENTRAL AND FAR SOUTHEAST GEORGIA...

CITY           SKY/WX    TMP DP  RH WIND       PRES   REMARKS
THOMSON        CLOUDY    68  57  67 CALM      30.32S
AUGUSTA-BUSH   CLOUDY    68  58  70 CALM      30.26R
AUGUSTA-DANIEL CLOUDY    76  48  37 NE6       30.27S
SWAINSBORO     FAIR      73  59  60 MISG      30.25S
VIDALIA        MOCLDY    73  63  68 E6        30.24R
EASTMAN        FAIR      75  49  39 NE5       30.25R
HAZLEHURST     FAIR      77  56  48 E6        30.21S
ALMA           PTCLDY    76  64  66 E5        30.22R
WAYCROSS       PTCLDY    75  65  70 E7        30.22S
JESUP          NOT AVBL
BAXLEY         FAIR      73  64  73 E5        30.22S
BRUNSWICK      PTCLDY    72  66  83 NE8       30.23S
SAINT SIMONS   PTCLDY    75  70  84 NE13      30.22R

$$

SCZ027-028-034-036>038-045-046-048>050-GAZ119-141-220000-
...LAKE AND SUPPLEMENTAL COASTAL OBSERVATIONS...

STATION/POSITION TIME  TEMP    WIND        PRES    WAVE   SWELL
                       AIR SEA DIR/SP/G            HT/PER HT/PER/DIR
                 (UTC) (F)     (DEG/KT/KT) (MB)    (FT/S) (FT/S/D)
WINYAH BAY       2145   73      80/  8     1025.0
LAKE MURRAY      2220   76      CALM  /  5 1024.4R
ACE BASIN NERRS  2145   77      70/  3     1025.0
FORT PULASKI     2236   73 74              1024.7S
SAPELO ISLAND    NOT AVBL

$$

ANZ835-935-AMZ111-154-330-350-352-354-370-450-454-472-220000-
...C-MAN AND BUOY OBSERVATIONS...

STATION/POSITION TIME  TEMP    WIND        PRES    WAVE   SWELL
                       AIR SEA DIR/SP/G            HT/PER HT/PER/DIR
                 (UTC) (F)     (DEG/KT/KT) (MB)    (FT/S) (FT/S/D)
BUOY 41004       2250   78 81   80/ 14/ 17 1024.1R   4/ 9   2/100/ 9
BUOY 41008       2250   78 77   90/ 10/ 12 1023.1R   5/ 5   3/ 80/ 5
FOLLY BEACH CMAN 2200   73      60/ 14/ 16 1025.5F
CAPERS NEARSHORE 2208   71 73   60/ 14/ 17 1024.7R
FRIPP NEARSHORE  2208   75      60/ 16/ 19   N/A


STATION/POSITION TIME  TEMP    WIND        PRES    WAVE   SWELL
                       AIR SEA DIR/SP/G            HT/PER HT/PER/DIR
                 (UTC) (F)     (DEG/KT/KT) (MB)    (FT/S) (FT/S/D)
5E ST. MARYS GA  2230      77                N/A     4/ 5
FRYING PAN BUOY  2250   76 76   60/ 12/ 14 1025.3S   3/ 9   2/110/ 9
BUOY 41025       2250   73 81   10/  8/ 12 1026.6R   3/ 8   3/120/ 8
CAPE LOOKOUT NC  2200   72      50/ 10/ 11 1026.2R
BUOY 41002       2250   77 80   90/ 10/ 12 1024.9R   4/ 8   3/ 80/ 8
BUOY 41010       NOT AVBL
ST AUGUSTINE FL  2300   79 78   70/ 15/ 17 1022.1S


$$




USA.gov is the U.S. government's official web portal to all federal, state and local government web resources and services.